GW5682 Weather Reports


Display with metric or nautical units.
time (UTC)temp
F
wind
direction
speed
MPH
gust
MPH
rain 1hr
in
rain 24hr
in
rain mn
in
humidity
%
barometer
mb
20260902124633 75 0.0 0.0 0.00 0.00 0.00 86 1018.3
20260902123629 75 0.0 0.0 0.00 0.00 0.00 86 1018.1
20260902122633 74 0.0 0.0 0.00 0.00 0.00 86 1017.9
20260902121609 74 0.0 1.0 0.00 0.00 0.00 86 1017.8
20260902120633 75 0.0 1.0 0.00 0.00 0.00 85 1017.7
20260902115609 75 0.0 0.0 0.00 0.00 0.00 85 1017.9
20260902114633 74 90 1.0 2.0 0.00 0.00 0.00 85 1017.9
20260902113609 74 0.0 1.0 0.00 0.00 0.00 84 1017.9
20260902112633 74 0.0 0.0 0.00 0.00 0.00 83 1017.9
20260902111629 75 0.0 0.0 0.00 0.00 0.00 82 1017.8
20260902110633 75 0.0 0.0 0.00 0.00 0.00 82 1018.0
20260902105609 75 0.0 0.0 0.00 0.00 0.00 82 1017.8
20260902104653 75 0.0 1.0 0.00 0.00 0.00 81 1018.0
20260902103609 75 0.0 0.0 0.00 0.00 0.00 80 1018.0
20260902102633 76 0.0 0.0 0.00 0.00 0.00 80 1017.7
20260902101609 76 0.0 0.0 0.00 0.00 0.00 79 1017.9
20260902100633 76 0.0 0.0 0.00 0.00 0.00 80 1017.7
20260902095609 76 90 1.0 2.0 0.00 0.00 0.00 79 1017.7
20260902094633 76 0.0 1.0 0.00 0.00 0.00 78 1017.6
20260902093649 76 90 1.0 1.0 0.00 0.00 0.00 77 1017.5
20260902092633 76 0.0 0.0 0.00 0.00 0.00 76 1017.7
20260902091609 77 0.0 0.0 0.00 0.00 0.00 75 1017.8
20260902090633 77 0.0 0.0 0.00 0.00 0.00 74 1017.7
20260902085609 78 0.0 0.0 0.00 0.00 0.00 74 1017.7
20260902084633 78 0.0 0.0 0.00 0.00 0.00 73 1017.5
20260902083609 78 0.0 0.0 0.00 0.00 0.00 73 1017.6
20260902082633 78 0.0 0.0 0.00 0.00 0.00 72 1017.5
20260902081609 79 0.0 0.0 0.00 0.00 0.00 71 1017.7
20260902080653 80 0.0 0.0 0.00 0.00 0.00 71 1017.4
20260902075609 80 0.0 0.0 0.00 0.00 0.00 70 1017.9
20260902074633 80 0.0 1.0 0.00 0.00 0.00 70 1017.5
20260902073609 81 0.0 0.0 0.00 0.00 0.00 70 1017.6
20260902072653 81 0.0 0.0 0.00 0.00 0.00 70 1017.5
20260902071609 81 0.0 1.0 0.00 0.00 0.00 70 1017.5
20260902070633 81 0.0 1.0 0.00 0.00 0.00 69 1017.7
20260902065629 82 90 1.0 2.0 0.00 0.00 0.00 65 1017.7
20260902064633 82 90 1.0 1.0 0.00 0.00 0.00 65 1017.5
20260902063609 81 90 1.0 1.0 0.00 0.00 0.00 70 1017.7
20260902062633 82 0.0 1.0 0.00 0.00 0.00 65 1017.5
20260902061609 82 0.0 0.0 0.00 0.00 0.00 65 1017.6
20260902060633 82 0.0 1.0 0.00 0.00 0.00 64 1017.6
20260902055629 82 0.0 0.0 0.00 0.00 0.00 64 1017.6
20260902054653 82 135 1.0 1.0 0.00 0.00 0.00 64 1017.4
20260902053609 83 0.0 1.0 0.00 0.00 0.00 63 1017.4
20260902052713 83 135 1.0 1.0 0.00 0.00 0.00 62 1017.3
20260902051649 83 0.0 0.0 0.00 0.00 0.00 62 1017.3
20260902050633 84 90 1.0 1.0 0.00 0.00 0.00 61 1017.4
20260902045629 84 113 1.0 1.0 0.00 0.00 0.00 61 1017.3
20260902044633 85 180 1.0 2.0 0.00 0.00 0.00 60 1017.4
20260902043609 85 135 1.0 1.0 0.00 0.00 0.00 60 1017.3
20260902042633 85 135 1.0 2.0 0.00 0.00 0.00 59 1017.3
20260902041608 85 90 2.0 3.0 0.00 0.00 0.00 59 1017.2
20260902040633 84 90 3.0 4.0 0.00 0.00 0.00 62 1017.3
20260902035609 84 180 2.0 3.0 0.00 0.00 0.00 62 1017.1
20260902034633 84 0.0 0.0 0.00 0.00 0.00 62 1016.9
20260902033609 84 0.0 0.0 0.00 0.00 0.00 61 1016.9
20260902032632 84 0.0 0.0 0.00 0.00 0.00 62 1016.9
20260902031709 85 0.0 0.0 0.00 0.00 0.00 62 1017.0
20260902030633 85 0.0 0.0 0.00 0.00 0.00 60 1016.8
20260902025609 85 0.0 0.0 0.00 0.00 0.00 60 1016.6
20260902024633 85 0.0 0.0 0.00 0.00 0.00 61 1016.5
20260902023609 85 0.0 0.0 0.00 0.00 0.00 62 1016.3
20260902022633 84 0.0 1.0 0.00 0.00 0.00 64 1016.3
20260902021629 85 0.0 1.0 0.00 0.00 0.00 63 1015.9
20260902020633 86 45 1.0 1.0 0.00 0.00 0.00 60 1015.7
20260902015649 86 0.0 1.0 0.00 0.00 0.00 60 1015.7
20260902014633 86 0.0 0.0 0.00 0.00 0.00 55 1015.6
20260902013609 87 0.0 0.0 0.00 0.00 0.00 52 1015.5
20260902012653 88 0.0 1.0 0.00 0.00 0.00 51 1015.4
20260902011609 89 0.0 0.0 0.00 0.00 0.00 50 1015.2
20260902010633 89 0.0 0.0 0.00 0.00 0.00 48 1015.2
20260902005609 90 0.0 0.0 0.00 0.00 0.00 47 1015.1
20260902004633 91 0.0 0.0 0.00 0.00 0.00 43 1015.1
20260902003649 92 0.0 0.0 0.00 0.00 0.00 41 1015.2
20260902002633 94 0.0 0.0 0.00 0.00 0.00 41 1015.3
20260902001609 94 90 1.0 1.0 0.00 0.00 0.00 41 1015.3
20260902000633 93 90 1.0 1.0 0.00 0.00 0.00 40 1015.6
20260901235609 93 0.0 1.0 0.00 0.00 0.00 40 1015.7
20260901234633 93 45 3.0 3.0 0.00 0.00 0.00 38 1015.5
20260901233609 96 45 6.0 8.0 0.00 0.00 0.00 38 1015.7
20260901232713 96 90 1.0 1.0 0.00 0.00 0.00 36 1015.7
20260901231609 96 90 1.0 1.0 0.00 0.00 0.00 36 1015.7
20260901230633 96 45 1.0 1.0 0.00 0.00 0.00 36 1015.7
20260901225609 98 45 3.0 4.0 0.00 0.00 0.00 34 1015.7
20260901224633 99 90 3.0 6.0 0.00 0.00 0.00 33 1015.8
20260901223609 100 135 4.0 5.0 0.00 0.00 0.00 31 1015.6
20260901222653 101 180 3.0 4.0 0.00 0.00 0.00 30 1015.5
20260901221609 102 180 4.0 5.0 0.00 0.00 0.00 30 1015.8
20260901220633 101 90 3.0 5.0 0.00 0.00 0.00 30 1015.7
20260901215609 101 45 2.0 3.0 0.00 0.00 0.00 30 1015.9
20260901214633 101 90 3.0 5.0 0.00 0.00 0.00 30 1015.9
20260901213609 101 23 4.0 5.0 0.00 0.00 0.00 30 1015.9
20260901212654 101 68 4.0 5.0 0.00 0.00 0.00 30 1015.9
20260901211649 101 135 2.0 3.0 0.00 0.00 0.00 31 1016.2
20260901210713 101 315 1.0 2.0 0.00 0.00 0.00 32 1016.4
20260901205609 100 90 3.0 3.0 0.00 0.00 0.00 32 1016.5
20260901204633 101 90 2.0 3.0 0.00 0.00 0.00 31 1016.5
20260901203609 100 158 1.0 3.0 0.00 0.00 0.00 32 1016.7
20260901202653 100 135 3.0 3.0 0.00 0.00 0.00 33 1016.6
20260901201609 98 90 3.0 5.0 0.00 0.00 0.00 37 1016.6
20260901200633 98 135 4.0 5.0 0.00 0.00 0.00 37 1017.2
20260901195609 98 180 1.0 1.0 0.00 0.00 0.00 36 1017.1
20260901194633 98 315 4.0 6.0 0.00 0.00 0.00 37 1017.2
20260901193629 98 315 3.0 4.0 0.00 0.00 0.00 38 1017.3
20260901192633 98 135 5.0 6.0 0.00 0.00 0.00 36 1017.4
20260901191609 98 180 1.0 2.0 0.00 0.00 0.00 39 1017.6
20260901190653 97 225 3.0 4.0 0.00 0.00 0.00 36 1017.9
20260901185609 98 90 2.0 3.0 0.00 0.00 0.00 38 1017.8
20260901184633 98 90 2.0 3.0 0.00 0.00 0.00 38 1018.1
20260901183609 96 180 2.0 3.0 0.00 0.00 0.00 39 1018.2
20260901182633 97 90 1.0 3.0 0.00 0.00 0.00 37 1018.4
20260901181629 96 135 1.0 2.0 0.00 0.00 0.00 39 1018.5
20260901180633 96 90 2.0 3.0 0.00 0.00 0.00 38 1018.7
20260901175629 97 45 5.0 6.0 0.00 0.00 0.00 38 1019.0
20260901175001 97 90 3.0 4.0 0.00 0.00 0.00 39 1019.2
20260901173610 96 0 1.0 2.0 0.00 0.00 0.00 41 1019.1
20260901172635 97 90 3.0 4.0 0.00 0.00 0.00 41 1019.3
20260901171611 95 45 3.0 5.0 0.00 0.00 0.00 42 1019.4
20260901170634 95 135 2.0 3.0 0.00 0.00 0.00 43 1019.4
20260901165630 94 315 1.0 2.0 0.00 0.00 0.00 42 1019.6
20260901164655 96 90 3.0 4.0 0.00 0.00 0.00 44 1019.8
20260901163610 95 0.0 1.0 0.00 0.00 0.00 42 1019.9
20260901162635 95 135 3.0 4.0 0.00 0.00 0.00 43 1019.8
20260901161611 95 225 2.0 3.0 0.00 0.00 0.00 44 1019.7
20260901160655 93 270 3.0 4.0 0.00 0.00 0.00 44 1019.7
20260901155611 94 270 1.0 2.0 0.00 0.00 0.00 46 1019.8
20260901154634 93 23 1.0 2.0 0.00 0.00 0.00 46 1020.0
20260901153631 92 180 1.0 1.0 0.00 0.00 0.00 47 1019.8
20260901152634 93 270 2.0 3.0 0.00 0.00 0.00 48 1019.6
20260901151610 91 225 1.0 1.0 0.00 0.00 0.00 50 1019.7
20260901150634 90 0 1.0 1.0 0.00 0.00 0.00 52 1019.9
20260901145611 90 180 1.0 3.0 0.00 0.00 0.00 54 1019.8
20260901144655 89 0 1.0 2.0 0.00 0.00 0.00 56 1019.9
20260901143611 89 315 1.0 2.0 0.00 0.00 0.00 58 1019.9
20260901142635 88 135 1.0 1.0 0.00 0.00 0.00 60 1019.9
20260901141610 87 90 1.0 1.0 0.00 0.00 0.00 60 1019.9
20260901140655 86 0.0 1.0 0.00 0.00 0.00 63 1020.0
20260901135611 85 225 1.0 2.0 0.00 0.00 0.00 64 1020.0
20260901134635 84 0.0 0.0 0.00 0.00 0.00 65 1019.9
20260901133610 83 135 1.0 1.0 0.00 0.00 0.00 68 1019.9
20260901132655 81 0.0 1.0 0.00 0.00 0.00 74 1019.8
20260901131631 79 0.0 1.0 0.00 0.00 0.00 78 1019.9
20260901130635 77 135 1.0 1.0 0.00 0.00 0.00 81 1019.7
20260901125611 75 0.0 0.0 0.00 0.00 0.00 81 1019.7